| time (UTC) | temp F | wind direction | speed MPH | gust MPH | rain 1hr in | rain 24hr in | rain mn in | humidity % | barometer mb |
| 20260505215408 | 60 | 348 | 0.0 | 1.0 | 0.00 | 0.00 | 0.00 | 73 | 1012.7 |
| 20260505214906 | 60 | 347 | 0.0 | 1.0 | 0.00 | 0.00 | 0.00 | 73 | 1012.5 |
| 20260505214403 | 60 | 4 | 0.0 | 0.0 | 0.00 | 0.00 | 0.00 | 73 | 1012.5 |
| 20260505213900 | 60 | 340 | 0.0 | 1.0 | 0.00 | 0.00 | 0.00 | 73 | 1012.5 |
| 20260505213358 | 60 | 0 | 0.0 | 1.0 | 0.00 | 0.00 | 0.00 | 73 | 1012.7 |
| 20260505212854 | 61 | 359 | 0.0 | 1.0 | 0.00 | 0.00 | 0.00 | 74 | 1012.7 |
| 20260505212351 | 61 | 72 | 0.0 | 1.0 | 0.00 | 0.00 | 0.00 | 73 | 1012.7 |
| 20260505211847 | 61 | 45 | 0.0 | 0.0 | 0.00 | 0.00 | 0.00 | 74 | 1012.7 |
| 20260505211345 | 61 | 45 | 1.0 | 1.0 | 0.00 | 0.00 | 0.00 | 74 | 1012.6 |
| 20260505210841 | 61 | 327 | 1.0 | 1.0 | 0.00 | 0.00 | 0.00 | 74 | 1012.9 |
| 20260505210339 | 61 | 4 | 0.0 | 1.0 | 0.00 | 0.00 | 0.00 | 74 | 1012.9 |
| 20260505205835 | 61 | 1 | 0.0 | 1.0 | 0.00 | 0.00 | 0.00 | 74 | 1012.9 |
| 20260505205334 | 61 | 325 | 2.0 | 2.0 | 0.00 | 0.00 | 0.00 | 74 | 1012.8 |
| 20260505204830 | 61 | 4 | 1.0 | 1.0 | 0.00 | 0.00 | 0.00 | 73 | 1012.8 |
| 20260505204328 | 61 | 347 | 0.0 | 2.0 | 0.00 | 0.00 | 0.00 | 73 | 1012.6 |
| 20260505203825 | 61 | 332 | 1.0 | 2.0 | 0.00 | 0.00 | 0.00 | 73 | 1012.8 |
| 20260505203321 | 61 | 321 | 1.0 | 3.0 | 0.00 | 0.00 | 0.00 | 73 | 1013.0 |
| 20260505202818 | 61 | 263 | 4.0 | 5.0 | 0.00 | 0.00 | 0.00 | 73 | 1013.0 |
| 20260505202314 | 61 | 259 | 2.0 | 2.0 | 0.00 | 0.00 | 0.00 | 73 | 1012.8 |
| 20260505201811 | 61 | 275 | 2.0 | 3.0 | 0.00 | 0.00 | 0.00 | 73 | 1012.9 |
| 20260505201308 | 61 | 272 | 1.0 | 3.0 | 0.00 | 0.00 | 0.00 | 73 | 1012.7 |
| 20260505200807 | 61 | 293 | 2.0 | 5.0 | 0.00 | 0.00 | 0.00 | 73 | 1012.8 |
| 20260505200303 | 61 | 12 | 1.0 | 2.0 | 0.00 | 0.00 | 0.00 | 73 | 1012.8 |
| 20260505195758 | 61 | 349 | 1.0 | 3.0 | 0.00 | 0.00 | 0.00 | 73 | 1013.0 |
| 20260505195256 | 61 | 345 | 2.0 | 3.0 | 0.00 | 0.00 | 0.00 | 73 | 1012.8 |
| 20260505194753 | 61 | 346 | 1.0 | 2.0 | 0.00 | 0.00 | 0.00 | 73 | 1012.7 |
| 20260505194250 | 62 | 331 | 2.0 | 3.0 | 0.00 | 0.00 | 0.00 | 73 | 1012.6 |
| 20260505193745 | 62 | 326 | 3.0 | 6.0 | 0.00 | 0.00 | 0.00 | 73 | 1012.7 |
| 20260505193243 | 62 | 282 | 3.0 | 7.0 | 0.00 | 0.00 | 0.00 | 73 | 1012.9 |
| 20260505192741 | 62 | 285 | 6.0 | 10.0 | 0.00 | 0.00 | 0.00 | 73 | 1012.7 |
| 20260505192239 | 62 | 258 | 3.0 | 5.0 | 0.00 | 0.00 | 0.00 | 73 | 1012.7 |
| 20260505191737 | 61 | 280 | 3.0 | 5.0 | 0.00 | 0.00 | 0.00 | 73 | 1012.7 |
| 20260505191235 | 61 | 303 | 1.0 | 5.0 | 0.00 | 0.00 | 0.00 | 73 | 1012.7 |
| 20260505190731 | 61 | 269 | 3.0 | 3.0 | 0.00 | 0.00 | 0.00 | 73 | 1012.7 |
| 20260505190231 | 61 | 239 | 5.0 | 6.0 | 0.00 | 0.00 | 0.00 | 72 | 1012.7 |
| 20260505185728 | 61 | 316 | 2.0 | 3.0 | 0.00 | 0.00 | 0.00 | 72 | 1012.8 |
| 20260505185224 | 61 | 247 | 3.0 | 6.0 | 0.00 | 0.00 | 0.00 | 72 | 1012.6 |
| 20260505184720 | 61 | 258 | 3.0 | 5.0 | 0.00 | 0.00 | 0.00 | 71 | 1012.6 |
| 20260505184218 | 61 | 303 | 2.0 | 3.0 | 0.00 | 0.00 | 0.00 | 71 | 1012.8 |
| 20260505183714 | 61 | 247 | 3.0 | 3.0 | 0.00 | 0.00 | 0.00 | 71 | 1012.8 |
| 20260505183212 | 61 | 314 | 1.0 | 2.0 | 0.00 | 0.00 | 0.00 | 70 | 1012.7 |
| 20260505182708 | 61 | 247 | 4.0 | 5.0 | 0.00 | 0.00 | 0.00 | 70 | 1012.7 |
| 20260505182205 | 61 | 266 | 2.0 | 3.0 | 0.00 | 0.00 | 0.00 | 70 | 1012.8 |
| 20260505181701 | 61 | 317 | 1.0 | 2.0 | 0.00 | 0.00 | 0.00 | 70 | 1012.8 |
| 20260505181159 | 61 | 261 | 2.0 | 3.0 | 0.00 | 0.00 | 0.00 | 69 | 1012.7 |
| 20260505180655 | 61 | 304 | 2.0 | 5.0 | 0.00 | 0.00 | 0.00 | 69 | 1012.6 |
| 20260505180153 | 61 | 264 | 3.0 | 5.0 | 0.00 | 0.00 | 0.00 | 68 | 1012.5 |
| 20260505175648 | 61 | 302 | 2.0 | 3.0 | 0.00 | 0.00 | 0.00 | 68 | 1012.5 |
| 20260505175145 | 61 | 321 | 5.0 | 7.0 | 0.00 | 0.00 | 0.00 | 68 | 1012.5 |
| 20260505174642 | 61 | 252 | 4.0 | 8.0 | 0.00 | 0.00 | 0.00 | 68 | 1012.2 |
| 20260505174138 | 61 | 295 | 5.0 | 10.0 | 0.00 | 0.00 | 0.00 | 69 | 1012.5 |
| 20260505173635 | 62 | 338 | 3.0 | 5.0 | 0.00 | 0.00 | 0.00 | 69 | 1012.2 |
| 20260505173131 | 62 | 277 | 3.0 | 7.0 | 0.00 | 0.00 | 0.00 | 69 | 1012.3 |
| 20260505172629 | 62 | 295 | 2.0 | 5.0 | 0.00 | 0.00 | 0.00 | 69 | 1012.5 |
| 20260505172126 | 62 | 307 | 4.0 | 8.0 | 0.00 | 0.00 | 0.00 | 69 | 1012.4 |
| 20260505171620 | 62 | 247 | 7.0 | 8.0 | 0.00 | 0.00 | 0.00 | 69 | 1012.6 |
| 20260505171118 | 62 | 284 | 3.0 | 6.0 | 0.00 | 0.00 | 0.00 | 69 | 1012.5 |
| 20260505170615 | 62 | 279 | 3.0 | 6.0 | 0.00 | 0.00 | 0.00 | 69 | 1012.3 |
| 20260505170111 | 62 | 324 | 3.0 | 5.0 | 0.00 | 0.00 | 0.00 | 69 | 1012.3 |
| 20260505165606 | 62 | 265 | 3.0 | 6.0 | 0.00 | 0.00 | 0.00 | 68 | 1012.2 |
| 20260505165102 | 62 | 354 | 3.0 | 3.0 | 0.00 | 0.00 | 0.00 | 68 | 1012.2 |
| 20260505164558 | 62 | 263 | 4.0 | 8.0 | 0.00 | 0.00 | 0.00 | 68 | 1012.1 |
| 20260505164056 | 62 | 268 | 5.0 | 8.0 | 0.00 | 0.00 | 0.00 | 68 | 1012.1 |
| 20260505163554 | 62 | 319 | 5.0 | 7.0 | 0.00 | 0.00 | 0.00 | 67 | 1012.4 |
| 20260505163051 | 62 | 305 | 2.0 | 8.0 | 0.00 | 0.00 | 0.00 | 67 | 1012.1 |
| 20260505162544 | 62 | 300 | 4.0 | 7.0 | 0.00 | 0.00 | 0.00 | 67 | 1012.1 |
| 20260505162041 | 62 | 316 | 5.0 | 8.0 | 0.00 | 0.00 | 0.00 | 68 | 1012.3 |
| 20260505161538 | 62 | 258 | 5.0 | 9.0 | 0.00 | 0.00 | 0.00 | 68 | 1012.3 |
| 20260505161035 | 62 | 257 | 8.0 | 9.0 | 0.00 | 0.00 | 0.00 | 68 | 1012.3 |
| 20260505160533 | 62 | 354 | 3.0 | 8.0 | 0.00 | 0.00 | 0.00 | 68 | 1012.2 |
| 20260505153009 | 63 | 248 | 5.0 | 6.0 | 0.00 | 0.00 | 0.00 | 62 | 1012.2 |
| 20260505152506 | 62 | 248 | 4.0 | 11.0 | 0.00 | 0.00 | 0.00 | 62 | 1012.0 |
| 20260505152002 | 63 | 344 | 7.0 | 9.0 | 0.00 | 0.00 | 0.00 | 64 | 1012.1 |
| 20260505151457 | 63 | 246 | 7.0 | 8.0 | 0.00 | 0.00 | 0.00 | 65 | 1012.3 |
| 20260505150955 | 62 | 275 | 7.0 | 11.0 | 0.00 | 0.00 | 0.00 | 66 | 1012.1 |
| 20260505150452 | 63 | 331 | 5.0 | 11.0 | 0.00 | 0.00 | 0.00 | 66 | 1012.1 |
| 20260505140422 | 64 | 286 | 13.0 | 16.0 | 0.00 | 0.00 | 0.00 | 61 | 1011.7 |
| 20260505124829 | 66 | 280 | 12.0 | 21.0 | 0.00 | 0.00 | 0.00 | 58 | 1011.5 |
| 20260505124326 | 67 | 207 | 10.0 | 15.0 | 0.00 | 0.00 | 0.00 | 57 | 1011.5 |
| 20260505123822 | 65 | 302 | 12.0 | 16.0 | 0.00 | 0.00 | 0.00 | 61 | 1011.4 |
| 20260505123319 | 66 | 281 | 15.0 | 18.0 | 0.00 | 0.00 | 0.00 | 60 | 1011.5 |
| 20260505122815 | 66 | 274 | 9.0 | 15.0 | 0.00 | 0.00 | 0.00 | 58 | 1011.5 |
| 20260505122313 | 66 | 281 | 7.0 | 17.0 | 0.00 | 0.00 | 0.00 | 58 | 1011.7 |
| 20260505121809 | 66 | 283 | 9.0 | 18.0 | 0.00 | 0.00 | 0.00 | 58 | 1011.5 |
| 20260505121306 | 67 | 327 | 7.0 | 15.0 | 0.00 | 0.00 | 0.00 | 56 | 1011.5 |
| 20260505120802 | 68 | 238 | 7.0 | 13.0 | 0.00 | 0.00 | 0.00 | 55 | 1011.5 |
| 20260505120258 | 66 | 271 | 7.0 | 10.0 | 0.00 | 0.00 | 0.00 | 57 | 1011.4 |
| 20260505115757 | 66 | 274 | 12.0 | 21.0 | 0.00 | 0.00 | 0.00 | 58 | 1011.6 |
| 20260505115255 | 66 | 311 | 8.0 | 16.0 | 0.00 | 0.00 | 0.00 | 57 | 1011.6 |
| 20260505114752 | 67 | 249 | 7.0 | 15.0 | 0.00 | 0.00 | 0.00 | 56 | 1011.5 |
| 20260505114248 | 67 | 246 | 11.0 | 15.0 | 0.00 | 0.00 | 0.00 | 52 | 1011.7 |
| 20260505113745 | 67 | 293 | 12.0 | 14.0 | 0.00 | 0.00 | 0.00 | 52 | 1011.5 |
| 20260505113241 | 67 | 272 | 10.0 | 16.0 | 0.00 | 0.00 | 0.00 | 51 | 1011.4 |
| 20260505112737 | 67 | 283 | 11.0 | 15.0 | 0.00 | 0.00 | 0.00 | 50 | 1011.5 |
| 20260505112235 | 66 | 275 | 11.0 | 16.0 | 0.00 | 0.00 | 0.00 | 49 | 1011.4 |
| 20260505111735 | 67 | 275 | 9.0 | 17.0 | 0.00 | 0.00 | 0.00 | 49 | 1011.5 |
| 20260505111231 | 67 | 272 | 14.0 | 21.0 | 0.00 | 0.00 | 0.00 | 51 | 1011.5 |
| 20260505110727 | 67 | 256 | 9.0 | 18.0 | 0.00 | 0.00 | 0.00 | 52 | 1011.5 |
| 20260505110225 | 67 | 241 | 15.0 | 18.0 | 0.00 | 0.00 | 0.00 | 49 | 1011.4 |
| 20260505102200 | 68 | 228 | 9.0 | 16.0 | 0.00 | 0.00 | 0.00 | 51 | 1011.4 |
| 20260505101659 | 68 | 332 | 11.0 | 17.0 | 0.00 | 0.00 | 0.00 | 50 | 1011.6 |
| 20260505101154 | 68 | 273 | 14.0 | 18.0 | 0.00 | 0.00 | 0.00 | 50 | 1011.6 |
| 20260505100650 | 68 | 274 | 4.0 | 15.0 | 0.00 | 0.00 | 0.00 | 49 | 1011.5 |
| 20260505100148 | 66 | 259 | 9.0 | 11.0 | 0.00 | 0.00 | 0.00 | 53 | 1011.5 |
| 20260505095643 | 66 | 243 | 5.0 | 13.0 | 0.00 | 0.00 | 0.00 | 51 | 1011.5 |
| 20260505095141 | 66 | 302 | 5.0 | 8.0 | 0.00 | 0.00 | 0.00 | 52 | 1011.5 |
| 20260505094637 | 66 | 285 | 11.0 | 17.0 | 0.00 | 0.00 | 0.00 | 52 | 1011.8 |
| 20260505094133 | 67 | 258 | 7.0 | 11.0 | 0.00 | 0.00 | 0.00 | 51 | 1011.5 |
| 20260505093630 | 67 | 264 | 12.0 | 17.0 | 0.00 | 0.00 | 0.00 | 48 | 1011.6 |
| 20260505093127 | 66 | 250 | 9.0 | 16.0 | 0.00 | 0.00 | 0.00 | 52 | 1011.8 |
| 20260505092624 | 66 | 312 | 9.0 | 18.0 | 0.00 | 0.00 | 0.00 | 48 | 1011.8 |
| 20260505092123 | 66 | 256 | 10.0 | 17.0 | 0.00 | 0.00 | 0.00 | 50 | 1011.8 |
| 20260505091619 | 65 | 235 | 11.0 | 18.0 | 0.00 | 0.00 | 0.00 | 53 | 1011.7 |
| 20260505091118 | 65 | 239 | 11.0 | 18.0 | 0.00 | 0.00 | 0.00 | 52 | 1011.9 |
| 20260505090615 | 65 | 275 | 12.0 | 18.0 | 0.00 | 0.00 | 0.00 | 54 | 1011.9 |
| 20260505090114 | 66 | 255 | 10.0 | 18.0 | 0.00 | 0.00 | 0.00 | 56 | 1011.8 |
| 20260505085610 | 66 | 294 | 9.0 | 17.0 | 0.00 | 0.00 | 0.00 | 54 | 1011.6 |
| 20260505085108 | 65 | 272 | 9.0 | 15.0 | 0.00 | 0.00 | 0.00 | 53 | 1011.8 |
| 20260505084606 | 66 | 290 | 8.0 | 17.0 | 0.00 | 0.00 | 0.00 | 53 | 1011.7 |
| 20260505084104 | 66 | 312 | 11.0 | 15.0 | 0.00 | 0.00 | 0.00 | 53 | 1011.9 |
| 20260505083602 | 65 | 342 | 11.0 | 14.0 | 0.00 | 0.00 | 0.00 | 55 | 1011.7 |
| 20260505083058 | 66 | 256 | 8.0 | 15.0 | 0.00 | 0.00 | 0.00 | 55 | 1011.8 |
| 20260505082554 | 66 | 264 | 12.0 | 16.0 | 0.00 | 0.00 | 0.00 | 53 | 1011.5 |
| 20260505082051 | 66 | 280 | 8.0 | 14.0 | 0.00 | 0.00 | 0.00 | 51 | 1011.6 |
| 20260505081547 | 65 | 291 | 11.0 | 17.0 | 0.00 | 0.00 | 0.00 | 52 | 1011.5 |
| 20260505081044 | 64 | 257 | 11.0 | 15.0 | 0.00 | 0.00 | 0.00 | 55 | 1011.5 |
| 20260505080540 | 65 | 248 | 13.0 | 16.0 | 0.00 | 0.00 | 0.00 | 54 | 1011.6 |
| 20260505080037 | 65 | 282 | 10.0 | 15.0 | 0.00 | 0.00 | 0.00 | 56 | 1011.7 |
| 20260505075533 | 64 | 307 | 11.0 | 13.0 | 0.00 | 0.00 | 0.00 | 58 | 1011.6 |
| 20260505075030 | 64 | 293 | 9.0 | 14.0 | 0.00 | 0.00 | 0.00 | 59 | 1011.8 |
| 20260505074527 | 64 | 278 | 7.0 | 14.0 | 0.00 | 0.00 | 0.00 | 58 | 1011.5 |
| 20260505074024 | 66 | 264 | 9.0 | 17.0 | 0.00 | 0.00 | 0.00 | 58 | 1011.5 |
| 20260505073522 | 65 | 293 | 8.0 | 13.0 | 0.00 | 0.00 | 0.00 | 51 | 1011.5 |
| 20260505073020 | 65 | 346 | 10.0 | 16.0 | 0.00 | 0.00 | 0.00 | 52 | 1011.4 |
| 20260505072515 | 65 | 275 | 16.0 | 18.0 | 0.00 | 0.00 | 0.00 | 55 | 1011.5 |
| 20260505072012 | 65 | 264 | 6.0 | 15.0 | 0.00 | 0.00 | 0.00 | 58 | 1011.5 |
| 20260505071507 | 63 | 244 | 11.0 | 14.0 | 0.00 | 0.00 | 0.00 | 59 | 1011.7 |
| 20260505071006 | 64 | 268 | 14.0 | 16.0 | 0.00 | 0.00 | 0.00 | 60 | 1011.4 |
| 20260505070503 | 63 | 284 | 7.0 | 14.0 | 0.00 | 0.00 | 0.00 | 62 | 1011.5 |
| 20260505065958 | 63 | 298 | 10.0 | 17.0 | 0.00 | 0.00 | 0.00 | 63 | 1011.4 |
| 20260505065454 | 63 | 277 | 6.0 | 13.0 | 0.00 | 0.00 | 0.00 | 62 | 1011.4 |
| 20260505064951 | 63 | 269 | 15.0 | 17.0 | 0.00 | 0.00 | 0.00 | 61 | 1011.4 |
| 20260505064448 | 63 | 275 | 11.0 | 13.0 | 0.00 | 0.00 | 0.00 | 61 | 1011.5 |
| 20260505063947 | 63 | 244 | 7.0 | 11.0 | 0.00 | 0.00 | 0.00 | 63 | 1011.6 |
| 20260505063443 | 62 | 194 | 7.0 | 9.0 | 0.00 | 0.00 | 0.00 | 66 | 1011.4 |
| 20260505062939 | 61 | 245 | 6.0 | 10.0 | 0.00 | 0.00 | 0.00 | 68 | 1011.6 |
| 20260505062437 | 61 | 250 | 8.0 | 11.0 | 0.00 | 0.00 | 0.00 | 68 | 1011.5 |
| 20260505061933 | 62 | 250 | 7.0 | 10.0 | 0.00 | 0.00 | 0.00 | 65 | 1011.6 |
| 20260505061432 | 63 | 286 | 7.0 | 17.0 | 0.00 | 0.00 | 0.00 | 60 | 1011.2 |
| 20260505060929 | 63 | 249 | 8.0 | 9.0 | 0.00 | 0.00 | 0.00 | 60 | 1011.1 |
| 20260505060426 | 64 | 272 | 5.0 | 11.0 | 0.00 | 0.00 | 0.00 | 57 | 1011.1 |
| 20260505055922 | 63 | 255 | 6.0 | 10.0 | 0.00 | 0.00 | 0.00 | 58 | 1011.2 |
| 20260505055418 | 63 | 248 | 7.0 | 13.0 | 0.00 | 0.00 | 0.00 | 58 | 1011.3 |
| 20260505054914 | 63 | 239 | 11.0 | 18.0 | 0.00 | 0.00 | 0.00 | 58 | 1010.9 |
| 20260505054412 | 63 | 312 | 7.0 | 11.0 | 0.00 | 0.00 | 0.00 | 58 | 1011.1 |
| 20260505053910 | 63 | 241 | 10.0 | 14.0 | 0.00 | 0.00 | 0.00 | 58 | 1011.0 |
| 20260505053407 | 63 | 243 | 7.0 | 15.0 | 0.00 | 0.00 | 0.00 | 58 | 1010.9 |
| 20260505052903 | 63 | 311 | 5.0 | 13.0 | 0.00 | 0.00 | 0.00 | 59 | 1011.1 |
| 20260505052400 | 63 | 283 | 6.0 | 14.0 | 0.00 | 0.00 | 0.00 | 58 | 1010.8 |
| 20260505051858 | 63 | 243 | 15.0 | 17.0 | 0.00 | 0.00 | 0.00 | 58 | 1010.9 |
| 20260505051355 | 63 | 213 | 5.0 | 10.0 | 0.00 | 0.00 | 0.00 | 59 | 1010.7 |
| 20260505050853 | 63 | 211 | 5.0 | 9.0 | 0.00 | 0.00 | 0.00 | 61 | 1010.8 |
| 20260505050351 | 63 | 263 | 3.0 | 6.0 | 0.00 | 0.00 | 0.00 | 61 | 1010.8 |
| 20260505041319 | 59 | 219 | 3.0 | 5.0 | 0.00 | 0.00 | 0.00 | 65 | 1010.6 |
| 20260505040816 | 59 | 174 | 2.0 | 3.0 | 0.00 | 0.00 | 0.00 | 65 | 1010.7 |
| 20260505040313 | 58 | 245 | 4.0 | 6.0 | 0.00 | 0.00 | 0.00 | 67 | 1010.7 |
| 20260505035809 | 58 | 192 | 1.0 | 2.0 | 0.00 | 0.00 | 0.00 | 67 | 1010.4 |
| 20260505035300 | 58 | 213 | 1.0 | 2.0 | 0.00 | 0.00 | 0.00 | 66 | 1010.5 |
| 20260505034757 | 58 | 243 | 2.0 | 2.0 | 0.00 | 0.00 | 0.00 | 67 | 1010.5 |
| 20260505034254 | 58 | 213 | 1.0 | 2.0 | 0.00 | 0.00 | 0.00 | 67 | 1010.3 |
| 20260505033750 | 57 | 194 | 2.0 | 2.0 | 0.00 | 0.00 | 0.00 | 68 | 1010.3 |
| 20260505033248 | 57 | 229 | 1.0 | 2.0 | 0.00 | 0.00 | 0.00 | 68 | 1010.2 |
| 20260505032746 | 57 | 222 | 1.0 | 2.0 | 0.00 | 0.00 | 0.00 | 69 | 1010.2 |
| 20260505032242 | 57 | 114 | 0.0 | 1.0 | 0.00 | 0.00 | 0.00 | 70 | 1010.1 |
| 20260505031739 | 57 | 213 | 0.0 | 1.0 | 0.00 | 0.00 | 0.00 | 69 | 1010.3 |
| 20260505031235 | 56 | 168 | 0.0 | 2.0 | 0.00 | 0.00 | 0.00 | 69 | 1010.1 |
| 20260505030732 | 56 | 167 | 0.0 | 1.0 | 0.00 | 0.00 | 0.00 | 70 | 1010.1 |
| 20260505030228 | 56 | 84 | 0.0 | 1.0 | 0.00 | 0.00 | 0.00 | 70 | 1010.2 |
| 20260505025724 | 56 | 93 | 1.0 | 1.0 | 0.00 | 0.00 | 0.00 | 70 | 1010.1 |
| 20260505025223 | 56 | 183 | 0.0 | 0.0 | 0.00 | 0.00 | 0.00 | 70 | 1010.2 |
| 20260505024721 | 56 | 183 | 0.0 | 1.0 | 0.00 | 0.00 | 0.00 | 70 | 1010.1 |
| 20260505024218 | 56 | 184 | 1.0 | 1.0 | 0.00 | 0.00 | 0.00 | 70 | 1010.1 |
| 20260505023715 | 56 | 181 | 1.0 | 1.0 | 0.00 | 0.00 | 0.00 | 70 | 1010.3 |
| 20260505023212 | 55 | 174 | 1.0 | 1.0 | 0.00 | 0.00 | 0.00 | 70 | 1010.2 |
| 20260505022710 | 56 | 204 | 0.0 | 1.0 | 0.00 | 0.00 | 0.00 | 69 | 1010.3 |
| 20260505022206 | 56 | 203 | 0.0 | 0.0 | 0.00 | 0.00 | 0.00 | 69 | 1010.4 |
| 20260505021703 | 56 | 203 | 0.0 | 1.0 | 0.00 | 0.00 | 0.00 | 68 | 1010.2 |
| 20260505021200 | 56 | 239 | 1.0 | 1.0 | 0.00 | 0.00 | 0.00 | 68 | 1010.3 |
| 20260505020655 | 56 | 256 | 1.0 | 2.0 | 0.00 | 0.00 | 0.00 | 67 | 1010.2 |
| 20260505020151 | 57 | 167 | 1.0 | 2.0 | 0.00 | 0.00 | 0.00 | 67 | 1010.3 |
| 20260505015648 | 57 | 175 | 0.0 | 2.0 | 0.00 | 0.00 | 0.00 | 66 | 1010.3 |
| 20260505015145 | 57 | 228 | 1.0 | 2.0 | 0.00 | 0.00 | 0.00 | 66 | 1010.3 |
| 20260505014642 | 57 | 218 | 2.0 | 2.0 | 0.00 | 0.00 | 0.00 | 66 | 1010.3 |
| 20260505014139 | 57 | 192 | 1.0 | 1.0 | 0.00 | 0.00 | 0.00 | 66 | 1010.3 |
| 20260505013637 | 57 | 200 | 1.0 | 1.0 | 0.00 | 0.00 | 0.00 | 65 | 1010.2 |
| 20260505013133 | 58 | 174 | 1.0 | 2.0 | 0.00 | 0.00 | 0.00 | 64 | 1010.6 |
| 20260505012631 | 58 | 219 | 1.0 | 3.0 | 0.00 | 0.00 | 0.00 | 64 | 1010.1 |
| 20260505012128 | 58 | 216 | 2.0 | 3.0 | 0.00 | 0.00 | 0.00 | 64 | 1010.4 |
| 20260505011623 | 58 | 187 | 1.0 | 3.0 | 0.00 | 0.00 | 0.00 | 63 | 1010.3 |
| 20260505011121 | 58 | 176 | 2.0 | 3.0 | 0.00 | 0.00 | 0.00 | 64 | 1010.3 |
| 20260505010616 | 58 | 198 | 2.0 | 3.0 | 0.00 | 0.00 | 0.00 | 64 | 1010.3 |
| 20260505010113 | 58 | 175 | 1.0 | 2.0 | 0.00 | 0.00 | 0.00 | 66 | 1010.5 |
| 20260505005609 | 57 | 213 | 1.0 | 2.0 | 0.00 | 0.00 | 0.00 | 66 | 1010.5 |
| 20260505005101 | 58 | 250 | 1.0 | 1.0 | 0.00 | 0.00 | 0.00 | 66 | 1010.6 |
| 20260505004558 | 58 | 251 | 1.0 | 1.0 | 0.00 | 0.00 | 0.00 | 65 | 1010.3 |
| 20260505004055 | 58 | 220 | 1.0 | 2.0 | 0.00 | 0.00 | 0.00 | 65 | 1010.4 |
| 20260505003552 | 58 | 213 | 1.0 | 2.0 | 0.00 | 0.00 | 0.00 | 65 | 1010.5 |
| 20260505003050 | 58 | 230 | 2.0 | 2.0 | 0.00 | 0.00 | 0.00 | 65 | 1010.5 |
| 20260505002549 | 58 | 205 | 0.0 | 1.0 | 0.00 | 0.00 | 0.00 | 65 | 1010.4 |
| 20260505002043 | 58 | 184 | 1.0 | 2.0 | 0.00 | 0.00 | 0.00 | 65 | 1010.5 |
| 20260505001540 | 59 | 350 | 0.0 | 1.0 | 0.00 | 0.00 | 0.00 | 64 | 1010.6 |
| 20260505001037 | 59 | 326 | 1.0 | 2.0 | 0.00 | 0.00 | 0.00 | 64 | 1010.8 |
| 20260505000535 | 59 | 227 | 1.0 | 2.0 | 0.00 | 0.00 | 0.00 | 64 | 1010.7 |
| 20260505000032 | 59 | 290 | 3.0 | 5.0 | 0.00 | 0.00 | 0.00 | 64 | 1010.7 |
| 20260504235529 | 59 | 258 | 3.0 | 5.0 | 0.00 | 0.00 | 0.00 | 64 | 1011.0 |
| 20260504235026 | 59 | 323 | 1.0 | 3.0 | 0.00 | 0.00 | 0.00 | 65 | 1010.5 |
| 20260504234523 | 59 | 301 | 3.0 | 3.0 | 0.00 | 0.00 | 0.00 | 65 | 1010.9 |
| 20260504234020 | 59 | 298 | 1.0 | 5.0 | 0.00 | 0.00 | 0.00 | 64 | 1010.8 |
| 20260504233515 | 59 | 327 | 4.0 | 6.0 | 0.00 | 0.00 | 0.00 | 64 | 1010.7 |
| 20260504233012 | 60 | 209 | 2.0 | 3.0 | 0.00 | 0.00 | 0.00 | 64 | 1010.9 |
| 20260504232509 | 60 | 249 | 3.0 | 5.0 | 0.00 | 0.00 | 0.00 | 64 | 1011.0 |
| 20260504232007 | 60 | 301 | 3.0 | 3.0 | 0.00 | 0.00 | 0.00 | 64 | 1011.0 |
| 20260504231503 | 60 | 329 | 2.0 | 5.0 | 0.00 | 0.00 | 0.00 | 63 | 1011.1 |
| 20260504230959 | 60 | 291 | 4.0 | 8.0 | 0.00 | 0.00 | 0.00 | 63 | 1011.1 |
| 20260504230455 | 61 | 257 | 4.0 | 7.0 | 0.00 | 0.00 | 0.00 | 62 | 1011.1 |
| 20260504225955 | 61 | 251 | 5.0 | 6.0 | 0.00 | 0.00 | 0.00 | 62 | 1011.2 |
| 20260504225451 | 61 | 256 | 5.0 | 7.0 | 0.00 | 0.00 | 0.00 | 61 | 1011.3 |
| 20260504224948 | 61 | 302 | 3.0 | 6.0 | 0.00 | 0.00 | 0.00 | 60 | 1011.4 |
| 20260504224444 | 60 | 282 | 4.0 | 5.0 | 0.00 | 0.00 | 0.00 | 60 | 1011.6 |
| 20260504223942 | 60 | 275 | 4.0 | 5.0 | 0.00 | 0.00 | 0.00 | 60 | 1011.5 |
| 20260504223438 | 60 | 278 | 4.0 | 7.0 | 0.00 | 0.00 | 0.00 | 61 | 1011.5 |
| 20260504222933 | 60 | 272 | 4.0 | 5.0 | 0.00 | 0.00 | 0.00 | 61 | 1011.7 |
| 20260504222431 | 60 | 257 | 3.0 | 6.0 | 0.00 | 0.00 | 0.00 | 60 | 1011.8 |
| 20260504221929 | 60 | 281 | 4.0 | 7.0 | 0.00 | 0.00 | 0.00 | 60 | 1011.8 |
| 20260504221425 | 61 | 253 | 2.0 | 3.0 | 0.00 | 0.00 | 0.00 | 60 | 1011.9 |
| 20260504220923 | 61 | 274 | 5.0 | 6.0 | 0.00 | 0.00 | 0.00 | 60 | 1012.0 |
| 20260504220419 | 61 | 316 | 6.0 | 8.0 | 0.00 | 0.00 | 0.00 | 59 | 1011.8 |
| 20260504215916 | 61 | 262 | 4.0 | 8.0 | 0.00 | 0.00 | 0.00 | 60 | 1012.0 |